"Pseudo-MPEC" for J312311

Created 2023 Dec 2 2:22:03 UT using Find_Orb

Click here for an explanation of pseudo-MPECs

 
 Astrometry: 
     J312311*KC2023 11 19QH?lArJx[K?KyqQrq0NGgLdhVf)8eyjh6Astrometry/6a-Lg2k8J31
     J312311 KC2023 11 192cD*Zredacted;.Y\P_F;f!.clickQR?rh(c)65qHZcZCa?XpR:FJ31
     J312311 KC2023 11 197`-?;1smQE5Y.?IwjLXS`!o%Ye1MeIg)0mK%Or0t-C]LmZherep?J31
     J312311 KC2023 11 308$Y:s_M8pU#sforB`)6b.o7Z%ehHHno)ehuiHiaqT1LW_n=B^YQSL90
     J312311 KC2023 11 30J1XiS[8*uAspdu:\14G]E,QbO6uZCEEV4y7UuUPH:C@tYQ.'4-3eL90
     J312311 KC2023 11 30IbUDvyCBU1uF8PAGZjMt3mHGD0NX=axf$-d,-vexplanationaqaL90

Station data:
(J31) La Axarquia  (N36.729513 W4.225890)  Spain.  Observer J. Baez. 0.30-m
   f/3 + CCD.
(L90) ABObservatory, Rosarno  (N38.455733 E15.979490)  Italy.

Orbital elements:  J312311
   Perihelion 2023 Apr 22.49499 TT = 11:52:47 (JD 2460056.99499)
Epoch 2023 Nov 30.0 TT = JDT 2460278.5   Earth MOID: 0.0047   Ju: 0.1503
M  25.86634152                      Ve: 0.0278   Me: 0.0572   Ma: 0.0091
n   0.11677542     Peri.   76.88955                              AutoNEOCP
a   4.14541879     Node   211.08687
e   0.8857650      Incl.    2.42156                       (J2000 ecliptic)
P   8.44           H   14.81    G   0.15   q 0.47355184  Q 7.81728574
4 of 6 observations 2023 Nov. 19-30; mean residual 0".54
Residuals in arcseconds: 
231119 J31( .13+  .25-)   231119 J31  .05-  .35-    231130 L90  .17-  1.0+    
231119 J31  .05+  .35+    231130 L90( 6.3-  .21-)   231130 L90  .17+  1.0-    

Ephemerides (geocentric):
Date (UTC) HH   RA             Dec           delta  r     elong  mag
---- --------  ------------   ------------  ------ ------ -----  ---
2023 12 02 02  04 51 20.564   +20 10 33.25  2.2222 3.2055 174.8 19.3
2023 12 02 03  04 51 17.141   +20 10 27.19  2.2226 3.2058 174.9 19.3
2023 12 02 04  04 51 13.719   +20 10 21.14  2.2229 3.2062 174.9 19.3
2023 12 02 05  04 51 10.298   +20 10 15.08  2.2233 3.2066 175.0 19.3
2023 12 02 06  04 51 06.878   +20 10 09.02  2.2236 3.2070 175.0 19.3
2023 12 02 07  04 51 03.458   +20 10 02.96  2.2239 3.2074 175.1 19.3
2023 12 02 08  04 51 00.039   +20 09 56.91  2.2243 3.2078 175.1 19.3
2023 12 02 09  04 50 56.622   +20 09 50.85  2.2246 3.2082 175.2 19.3
2023 12 02 10  04 50 53.205   +20 09 44.78  2.2250 3.2086 175.2 19.3
2023 12 02 11  04 50 49.789   +20 09 38.72  2.2253 3.2090 175.3 19.3
2023 12 02 12  04 50 46.374   +20 09 32.66  2.2257 3.2094 175.3 19.3
2023 12 02 13  04 50 42.959   +20 09 26.60  2.2260 3.2097 175.4 19.3
2023 12 02 14  04 50 39.546   +20 09 20.53  2.2264 3.2101 175.4 19.3
2023 12 02 15  04 50 36.133   +20 09 14.47  2.2267 3.2105 175.5 19.3
2023 12 02 16  04 50 32.722   +20 09 08.40  2.2271 3.2109 175.5 19.3
2023 12 02 17  04 50 29.311   +20 09 02.34  2.2274 3.2113 175.6 19.3
2023 12 02 18  04 50 25.901   +20 08 56.27  2.2278 3.2117 175.6 19.3
2023 12 02 19  04 50 22.492   +20 08 50.20  2.2281 3.2121 175.7 19.3
2023 12 02 20  04 50 19.084   +20 08 44.13  2.2285 3.2125 175.7 19.3
2023 12 02 21  04 50 15.677   +20 08 38.07  2.2288 3.2129 175.8 19.3
2023 12 02 22  04 50 12.271   +20 08 32.00  2.2292 3.2132 175.8 19.3
2023 12 02 23  04 50 08.866   +20 08 25.93  2.2296 3.2136 175.8 19.3
2023 12 03 00  04 50 05.461   +20 08 19.85  2.2299 3.2140 175.9 19.3
2023 12 03 01  04 50 02.058   +20 08 13.78  2.2303 3.2144 175.9 19.3
2023 12 03 02  04 49 58.656   +20 08 07.71  2.2306 3.2148 176.0 19.3
2023 12 03 03  04 49 55.254   +20 08 01.64  2.2310 3.2152 176.0 19.3
2023 12 03 04  04 49 51.853   +20 07 55.57  2.2313 3.2156 176.1 19.3
2023 12 03 05  04 49 48.454   +20 07 49.49  2.2317 3.2160 176.1 19.3
2023 12 03 06  04 49 45.055   +20 07 43.42  2.2321 3.2164 176.2 19.3
2023 12 03 07  04 49 41.657   +20 07 37.34  2.2324 3.2167 176.2 19.3
2023 12 03 08  04 49 38.261   +20 07 31.27  2.2328 3.2171 176.3 19.3
2023 12 03 09  04 49 34.865   +20 07 25.19  2.2331 3.2175 176.3 19.3
2023 12 03 10  04 49 31.470   +20 07 19.11  2.2335 3.2179 176.3 19.3
2023 12 03 11  04 49 28.076   +20 07 13.04  2.2339 3.2183 176.4 19.3
2023 12 03 12  04 49 24.683   +20 07 06.96  2.2342 3.2187 176.4 19.3
2023 12 03 13  04 49 21.291   +20 07 00.88  2.2346 3.2191 176.5 19.3
2023 12 03 14  04 49 17.901   +20 06 54.80  2.2350 3.2195 176.5 19.3
2023 12 03 15  04 49 14.511   +20 06 48.72  2.2353 3.2199 176.6 19.3
2023 12 03 16  04 49 11.122   +20 06 42.64  2.2357 3.2202 176.6 19.3
2023 12 03 17  04 49 07.734   +20 06 36.56  2.2360 3.2206 176.6 19.3
2023 12 03 18  04 49 04.347   +20 06 30.48  2.2364 3.2210 176.7 19.3
2023 12 03 19  04 49 00.961   +20 06 24.40  2.2368 3.2214 176.7 19.3
2023 12 03 20  04 48 57.576   +20 06 18.32  2.2371 3.2218 176.8 19.3
2023 12 03 21  04 48 54.192   +20 06 12.24  2.2375 3.2222 176.8 19.3
2023 12 03 22  04 48 50.810   +20 06 06.15  2.2379 3.2226 176.8 19.3
2023 12 03 23  04 48 47.428   +20 06 00.07  2.2383 3.2230 176.9 19.3
2023 12 04 00  04 48 44.047   +20 05 53.99  2.2386 3.2234 176.9 19.3
2023 12 04 01  04 48 40.667   +20 05 47.90  2.2390 3.2237 176.9 19.3